[[{"header":{"parameterUnit":"m.s-1","parameterCategory":1,"la1":30.2991,"la2":30.254,"lo1":-89.0895,"lo2":-89.0444,"dy":0.0017,"dx":0.0017,"nx":28,"ny":28,"refTime":"2023-10-23T03:00:00:Z","depth":0,"parameterNumber":2,"parameterNumberName":"U-component_of_WINDS"},"data":[0,0,0,0,0,0,0,0,0,0,0,0,0,0,0,0,0,0,0,0,0,0,0,0,0,0,0,0,0,0,0,0,0,0,0,0,0,0,0,0,0,0,0,0,0,0,0,0,0,0,0,0,0,0,0,0,0,0,0.3673,0.3673,0,0.3707,0.3707,0.3707,0.3711,0.3711,0.3711,0.371,0.3744,0.3746,0.3747,0,0,0,0,0,0,0,0,0,0,0,0,0,0.3611,0.3612,0.3673,0.3673,0.3674,0.3707,0.3707,0.3708,0.3711,0.3711,0.371,0.371,0.3744,0.3746,0.3747,0,0,0,0,0,0,0,0,0,0,0,0,0,0.364,0.3612,0.3673,0.368,0.3681,0.3707,0.3707,0.3708,0.3711,0.3711,0.371,0.371,0.3744,0.3745,0.3747,0.3769,0,0,0.3753,0.3754,0,0,0,0,0,0,0,0,0.3639,0.3643,0.3678,0.3679,0.368,0.3704,0.3698,0.3728,0.3711,0.37,0.371,0.371,0.3731,0.3734,0.3742,0.377,0.3772,0.3753,0.3754,0.3755,0.3755,0,0,0,0,0,0,0,0.3637,0.3641,0.3686,0.3679,0.368,0.3681,0.3684,0.3703,0.3718,0.3701,0.3701,0.3705,0.3732,0.374,0.3743,0.3772,0.3753,0.3755,0.3756,0.3756,0.3819,0.3819,0,0,0,0,0,0,0.3634,0.364,0.3685,0.3687,0.3658,0.3682,0.3686,0.3697,0.3718,0.372,0.3705,0.3705,0.3737,0.374,0.3744,0.3769,0.3755,0.3757,0.3758,0.3818,0.3819,0.382,0,0,0,0,0,0,0.3632,0.3638,0.3684,0.3664,0.367,0.3684,0.3696,0.3698,0.3706,0.3721,0.3724,0.3711,0.3737,0.3741,0.3762,0.3771,0.3757,0.3759,0.3818,0.3819,0.3819,0.3822,0,0,0,0,0,0,0.363,0.3637,0.3646,0.3664,0.3671,0.3702,0.3696,0.3699,0.3709,0.3709,0.3727,0.373,0.3737,0.3759,0.3764,0.3773,0.3761,0.3817,0.3818,0.3819,0.3821,0.3822,0.3824,0,0,0,0,0,0.3628,0.3645,0.3646,0.3652,0.3682,0.3703,0.3706,0.3714,0.371,0.3718,0.3728,0.3729,0.3769,0.3762,0.3767,0.3776,0.3817,0.3818,0.3819,0.382,0.3822,0.3824,0,0,0,0,0,0,0.3628,0.3648,0.3649,0.3672,0.3686,0.3703,0.3714,0.3716,0.3731,0.373,0.3739,0.3743,0.3764,0.3772,0.3763,0.3798,0.3792,0.3795,0.3791,0.3793,0.3795,0.3792,0.3762,0,0,0,0,0,0.363,0.3646,0.3662,0.3681,0.3688,0.37,0.3709,0.3714,0.3728,0.3734,0.3745,0.3759,0.3774,0.3784,0.38,0.3822,0.3826,0.3831,0.3833,0.3834,0.3836,0.3847,0.385,0.3824,0.3824,0.3824,0,0,0.3636,0.3649,0.3658,0.3682,0.3693,0.3708,0.3705,0.3721,0.3733,0.3736,0.3757,0.3765,0.3781,0.3803,0.3813,0.3811,0.3844,0.3835,0.3836,0.3837,0.3849,0.3851,0.3853,0.3825,0.3825,0.3824,0,0,0.3654,0.3665,0.3682,0.3693,0.371,0.3717,0.3721,0.3738,0.3744,0.3765,0.3767,0.3781,0.3808,0.3818,0.3827,0.3849,0.385,0.3853,0.3861,0.3872,0.3874,0.3876,0.3883,0.3885,0.3855,0.3855,0.3855,0,0.3659,0.3682,0.369,0.3707,0.3717,0.3721,0.3737,0.3747,0.3768,0.3774,0.3772,0.3805,0.3816,0.3839,0.3844,0.3852,0.3856,0.3851,0.3873,0.3875,0.3877,0.3883,0.3886,0.3855,0.3855,0.3855,0.3855,0,0.3687,0.3703,0.3715,0.3734,0.3746,0.3762,0.3772,0.3782,0.3786,0.3794,0.3814,0.3827,0.3845,0.3851,0.3854,0.3875,0.3873,0.3871,0.3866,0.3879,0.3886,0.3888,0.3856,0.3856,0.3856,0.3855,0,0,0.3706,0.3729,0.3733,0.3742,0.376,0.3772,0.3789,0.3806,0.3814,0.3828,0.3841,0.3863,0.3862,0.3872,0.3877,0.3887,0.3902,0.3885,0.3885,0.3887,0.3924,0.3924,0.3927,0.3903,0.3903,0.3904,0.3922,0,0.3725,0.3755,0.3762,0.3787,0.3801,0.3805,0.3819,0.3831,0.3839,0.3852,0.386,0.3875,0.3873,0.3879,0.3889,0.3898,0.3909,0.3897,0.3915,0.3915,0.391,0.3931,0.3931,0.3948,0.3925,0.3925,0.3926,0,0.3752,0.3766,0.3792,0.3808,0.3814,0.3827,0.3842,0.3855,0.3869,0.3874,0.3885,0.3889,0.3905,0.3899,0.3921,0.3912,0.392,0.3926,0.3927,0.3928,0.3921,0.3932,0.3954,0.3956,0.393,0.3929,0.3929,0,0.3762,0.3788,0.3807,0.3814,0.3833,0.3841,0.3849,0.3863,0.3872,0.3886,0.3892,0.3907,0.3916,0.3927,0.3935,0.393,0.3956,0.3951,0.396,0.396,0.3965,0.3965,0.3988,0.3971,0.3971,0.3971,0.3971,0,0.3783,0.3799,0.3811,0.3823,0.384,0.3848,0.3865,0.3873,0.3885,0.3898,0.3902,0.3913,0.3923,0.3936,0.3942,0.3959,0.3963,0.3967,0.3968,0.3966,0.3966,0.3971,0.397,0.3972,0.3972,0.3971,0.3971,0,0.3797,0.3806,0.3827,0.3843,0.3847,0.3859,0.3873,0.3883,0.3891,0.3907,0.3911,0.3923,0.3938,0.3947,0.3966,0.397,0.3989,0.399,0.3984,0.3985,0.3993,0.3992,0.402,0.4024,0.4005,0.4005,0.4005,0,0.3809,0.3822,0.3839,0.3847,0.3856,0.387,0.3879,0.3888,0.3897,0.3913,0.3922,0.3938,0.3951,0.3975,0.3985,0.3999,0.4,0.4009,0.4003,0.4,0.4,0.3999,0.4,0.401,0.4011,0.4011,0.4011,0,0.383,0.3834,0.3848,0.3863,0.3874,0.3887,0.3899,0.3906,0.3916,0.3926,0.3942,0.3952,0.3971,0.3986,0.4002,0.401,0.4012,0.4013,0.4016,0.4013,0.4009,0.4011,0.3987,0.4012,0.4012,0.4012,0.4012,0.4012,0.3843,0.3854,0.3867,0.3882,0.3892,0.3903,0.3914,0.3923,0.3936,0.3953,0.3957,0.3973,0.3985,0.4006,0.4014,0.4027,0.4025,0.403,0.403,0.4031,0.4031,0.4008,0.403,0.403,0.403,0.403,0.403,0,0.3864,0.3872,0.3886,0.3903,0.3914,0.3915,0.3929,0.3938,0.3952,0.3964,0.3977,0.3994,0.4009,0.4019,0.4034,0.4042,0.4043,0.4045,0.4045,0.4046,0.4032,0.4028,0.4044,0.4044,0.4044,0.4044,0.4044,0.4044,0.3876,0.3893,0.3899,0.3921,0.3929,0.3945,0.3953,0.3963,0.3972,0.3992,0.4004,0.4011,0.4022,0.4037,0.405,0.4053,0.4058,0.406,0.4063,0.4049,0.4047,0.4046,0.4042,0.4061,0.4061,0.4076,0.4076,0.4076]},{"header":{"parameterUnit":"m.s-1","parameterCategory":1,"la1":30.2991,"la2":30.254,"lo1":-89.0895,"lo2":-89.0444,"dy":0.0017,"dx":0.0017,"nx":28,"ny":28,"refTime":"2023-10-23T03:00:00:Z","depth":0,"parameterNumber":3,"parameterNumberName":"V-component_of_WINDS"},"data":[0,0,0,0,0,0,0,0,0,0,0,0,0,0,0,0,0,0,0,0,0,0,0,0,0,0,0,0,0,0,0,0,0,0,0,0,0,0,0,0,0,0,0,0,0,0,0,0,0,0,0,0,0,0,0,0,0,0,0.8769,0.8768,0,0.8721,0.872,0.872,0.8699,0.87,0.87,0.87,0.8647,0.8645,0.8644,0,0,0,0,0,0,0,0,0,0,0,0,0,0.8839,0.8838,0.8769,0.8768,0.8768,0.8721,0.872,0.872,0.8699,0.87,0.87,0.87,0.8647,0.8645,0.8644,0,0,0,0,0,0,0,0,0,0,0,0,0,0.8802,0.8838,0.8769,0.8752,0.875,0.8721,0.872,0.8719,0.8699,0.87,0.87,0.87,0.8648,0.8645,0.8643,0.8626,0,0,0.8636,0.8635,0,0,0,0,0,0,0,0,0.8804,0.8799,0.8755,0.8753,0.8751,0.8716,0.8726,0.8688,0.8699,0.8719,0.87,0.87,0.8669,0.8665,0.8656,0.8624,0.8622,0.8636,0.8635,0.8634,0.8633,0,0,0,0,0,0,0,0.8807,0.8801,0.875,0.8755,0.8752,0.8746,0.874,0.8718,0.8694,0.8717,0.8715,0.871,0.8668,0.8658,0.8655,0.8621,0.8636,0.8634,0.8633,0.8632,0.8572,0.8572,0,0,0,0,0,0,0.8813,0.8803,0.8751,0.8748,0.8779,0.8744,0.8739,0.8727,0.8694,0.8689,0.871,0.8709,0.8662,0.8657,0.8653,0.863,0.8634,0.8632,0.863,0.8572,0.8572,0.8571,0,0,0,0,0,0,0.8814,0.8808,0.8753,0.8775,0.8768,0.8743,0.873,0.8726,0.8716,0.8689,0.8684,0.8705,0.8662,0.8656,0.8633,0.8628,0.8631,0.8629,0.8572,0.8572,0.8572,0.8586,0,0,0,0,0,0,0.8816,0.8809,0.8803,0.8776,0.8767,0.8736,0.873,0.8725,0.8713,0.8711,0.8682,0.8677,0.8662,0.8637,0.8631,0.8625,0.8627,0.8573,0.8572,0.8572,0.8586,0.8586,0.8587,0,0,0,0,0,0.8819,0.8808,0.8803,0.8797,0.876,0.8736,0.8731,0.8714,0.8713,0.8706,0.8688,0.8678,0.863,0.8635,0.8628,0.8621,0.8573,0.8572,0.8572,0.8586,0.8586,0.8587,0,0,0,0,0,0,0.8834,0.8804,0.8798,0.8779,0.876,0.8732,0.8724,0.8715,0.8695,0.8694,0.8673,0.8666,0.8646,0.8631,0.8637,0.8603,0.86,0.8599,0.8613,0.8614,0.8614,0.8618,0.8625,0,0,0,0,0,0.8836,0.8821,0.8794,0.878,0.8771,0.8749,0.8738,0.8727,0.8706,0.8698,0.8678,0.8657,0.8637,0.8625,0.8605,0.8584,0.8577,0.8576,0.8576,0.8577,0.8575,0.8562,0.8562,0.857,0.857,0.857,0,0,0.8838,0.882,0.8811,0.8782,0.8767,0.875,0.8742,0.8725,0.8712,0.8694,0.8672,0.8657,0.8633,0.8611,0.86,0.8598,0.8571,0.8576,0.8576,0.8575,0.8562,0.8561,0.856,0.8569,0.8569,0.8569,0,0,0.8834,0.8819,0.8805,0.879,0.8766,0.8752,0.8749,0.8722,0.8712,0.869,0.8676,0.866,0.8626,0.8609,0.8596,0.8585,0.8575,0.8579,0.858,0.8568,0.8568,0.8567,0.8563,0.8562,0.8577,0.8578,0.8578,0,0.884,0.8815,0.8799,0.8782,0.877,0.8754,0.8739,0.8725,0.8695,0.8686,0.8685,0.8642,0.8624,0.8598,0.8596,0.8586,0.858,0.8582,0.8569,0.8569,0.8568,0.8563,0.8562,0.8578,0.8578,0.8578,0.8578,0,0.8823,0.8806,0.8797,0.8771,0.8757,0.8742,0.8722,0.8709,0.8699,0.8684,0.8661,0.864,0.8615,0.8608,0.8597,0.858,0.8579,0.8574,0.8571,0.8568,0.8564,0.8562,0.8579,0.8579,0.8579,0.8578,0,0,0.8827,0.8793,0.879,0.8777,0.8751,0.8737,0.872,0.8697,0.8687,0.8667,0.8652,0.8623,0.8618,0.8603,0.859,0.858,0.8572,0.8575,0.8574,0.8575,0.8551,0.8556,0.8554,0.8566,0.8565,0.8565,0.8553,0,0.8819,0.879,0.8775,0.8752,0.8735,0.872,0.8705,0.8687,0.8672,0.8655,0.8639,0.8619,0.8614,0.8605,0.8594,0.8576,0.8567,0.8576,0.855,0.8549,0.8557,0.8552,0.8557,0.8547,0.8552,0.8551,0.8551,0,0.8807,0.8788,0.8764,0.8739,0.8732,0.8719,0.8697,0.8681,0.8659,0.8649,0.8633,0.862,0.86,0.8599,0.8571,0.8578,0.8566,0.8555,0.8554,0.8551,0.855,0.8548,0.8543,0.8542,0.8548,0.8549,0.8549,0,0.8812,0.8781,0.8763,0.8753,0.8723,0.8715,0.8701,0.868,0.8667,0.8647,0.8638,0.8616,0.8603,0.8585,0.8566,0.8567,0.854,0.8537,0.8531,0.8531,0.8526,0.8526,0.8518,0.8518,0.8518,0.8518,0.8518,0,0.8805,0.8791,0.8765,0.8754,0.8737,0.8718,0.8702,0.8687,0.8668,0.8652,0.8637,0.8623,0.8599,0.8581,0.8566,0.8545,0.8539,0.853,0.8526,0.8531,0.8533,0.8523,0.8523,0.8518,0.8518,0.8518,0.8518,0,0.8808,0.8791,0.877,0.8744,0.8737,0.8725,0.8702,0.869,0.8675,0.8655,0.865,0.8626,0.8604,0.8583,0.8554,0.8544,0.8522,0.8517,0.853,0.8528,0.8523,0.8524,0.8509,0.8506,0.8508,0.8508,0.8508,0,0.8805,0.8794,0.8767,0.8756,0.8744,0.8727,0.8714,0.8695,0.8682,0.8656,0.8646,0.8624,0.8605,0.857,0.8549,0.8526,0.8521,0.8517,0.8517,0.8523,0.852,0.8521,0.852,0.8517,0.8517,0.8517,0.8517,0,0.8801,0.8793,0.8776,0.8755,0.8741,0.8723,0.8705,0.8697,0.8674,0.866,0.8639,0.8624,0.8594,0.8572,0.8547,0.8531,0.852,0.8518,0.8515,0.852,0.8528,0.8524,0.8531,0.8518,0.8518,0.8518,0.8518,0.8518,0.8801,0.879,0.8769,0.8751,0.8735,0.8719,0.8706,0.869,0.8672,0.8647,0.8637,0.8615,0.8592,0.8557,0.8542,0.8524,0.8521,0.8517,0.8516,0.8516,0.8517,0.8531,0.8519,0.8519,0.8519,0.8519,0.8519,0,0.8796,0.8782,0.8765,0.8741,0.8726,0.8718,0.8697,0.8685,0.8666,0.8647,0.8629,0.8603,0.8581,0.8559,0.8535,0.8524,0.8519,0.8519,0.8519,0.8516,0.852,0.8525,0.8524,0.8524,0.8524,0.8524,0.8524,0.8524,0.8791,0.8773,0.8762,0.8735,0.8721,0.8701,0.869,0.8674,0.8658,0.8631,0.8613,0.8599,0.8578,0.8553,0.8532,0.8526,0.8517,0.8519,0.8511,0.8516,0.8516,0.8515,0.852,0.8517,0.8517,0.8508,0.8508,0.8508]}]]